Airfield :
LOGIN :

Register | Disclaimer

   EN    FR    IT 

 










Legend :    VFR   Marginal VFR   IFR   Intensive IFR   Very Intensive IFR
Visi :
Ceiling :
>= 8 km
>= 3000ft
5 to 8 km
1000 to 3000 ft
1500m to 5 km
500 to 1000 ft
800 to 1500m
200 to 500 ft
< 800m
< 200 ft
Symbols :   Thunderstorms  Fog  Heavy snow  Heavy precipitations  Wind > 20 kt
SIGMETs :     Misc.  Thunderstorms  Icing  Turbulence  Mountain Waves  Volcanic Ashes







- Airport Elevation : 13 ft
- IATA code : CEQ
- Download approach charts


LFMD - Cannes Mandelieu

CURRENT METAR :
  • 171100Z AUTO 17004KT 130V200 CAVOK 14/08 Q1029 NOSIG

EXPIRED METARs :
  • 171030Z AUTO 16004KT 110V210 CAVOK 14/07 Q1029 NOSIG
  • 171000Z AUTO 19003KT 130V220 CAVOK 14/06 Q1029 NOSIG
  • 170930Z AUTO 00000KT CAVOK 13/03 Q1029 NOSIG
  • 170900Z AUTO VRB02KT CAVOK 10/03 Q1029 NOSIG
  • 170830Z AUTO VRB05KT CAVOK 08/02 Q1029 NOSIG

TAF TAF LFMD
Valid from the 17 at 09:00 until the 18 at 09:00 UTC


170800Z 1709/1809 VRB05KT CAVOK
PROB30
TEMPO 1717/1720 4000 BR
ATIS : +33 4 93 48 73 23
No reported NOTAMs for that airfield.



MET'MAP, your aeronautical weather chart ! - Copyright ORBIFLY December 2007 - Disclaimer

ORBIFLY MET'MAP TEAM :

Programming & Development : Alexandra Zaïnal
Concept & Development : Baudouin d'Aumeries
Co-Development & Prog : Marc-Olivier Méhu
Technical & hardware support : Manuel Goepfert

Contact : metmap@orbifly.com




SOURCES & CREDITS :

   NOAA